Location: Nairn
(57.5833°N, 3.8667°W)
Time: 22:16:47
(UTC+00:00)

Tiros 1 - Pass Details

Date: 02 October 2022
Orbit: 629 x 662 km, 48.4° (Epoch: 08 December)

Event Time Altitude Azimuth Distance (km) Brightness Sun altitude
Exits shadow 02:55:12 17° 134° (SE) 1,664 9.3 -26.5°
Drops below altitude 10° 02:56:30 10° 123° (ESE) 2,055 9.9 -26.4°
Sets 02:59:05 0° 112° (ESE) 2,959 10.9 -26.1°
